Flag for Uruguay Weather past 2 weeks in Maldonado, Uruguay

Now
75 °F

Scattered clouds.


Feels Like: 77 °F
Forecast: 67 / 74 °F
Wind: 20 mph from South

Location: Capitan Corbeta

Current Time: Feb 27, 2015 at 1:25:46 PM

Latest Report: Feb 27, 2015 at 1:00 PM


Visibility: N/A

Pressure: 29.95 "Hg

Humidity: 61%

Dew point: 61 °F

Location of MaldonadoLocation

Historic Weather in Maldonado — Graph

°F

Maldonado temperature yesterday

Maximum temperature yesterday: 81 °F (at 12:00 PM)
Minimum temperature yesterday: 68 °F (at 5:00 AM)
Average temperature yesterday: 75 °F

Past Weeks' High & Low Weather Summary

 TemperatureHumidityPressure
High88 °F (Feb 12, 2:00 PM)94% (Feb 19, 4:00 AM)30.18 "Hg (Feb 19, 4:00 AM)
Low55 °F (Feb 14, 6:00 AM)35% (Feb 12, 2:00 PM)29.62 "Hg (Feb 18, 7:00 PM)
Average72 °F71%29.98 "Hg
* Reported Feb 12 11:00 AM — Feb 27 11:00 AM, Maldonado, Weather by CustomWeather, © 2015

Note: Actual official high and low records may vary slightly from our data, if they occured in-between our weather recording intervals... More about our weather records

Advertising

Maldonado weather history for previous 24 hours

 ConditionsComfort  
Time TempWeatherWind HumidityBarometerVisibility
11:00 AM
Fri, Feb 27
75 °FScattered clouds.17 mph61%29.92 "HgN/A
10:00 AM72 °FPartly sunny.17 mph69%29.89 "HgN/A
9:00 AM73 °FPartly sunny.12 mph74%29.89 "HgN/A
8:00 AM70 °FScattered clouds.7 mph83%29.86 "HgN/A
7:00 AM70 °FPassing clouds.6 mph78%29.86 "HgN/A
2:00 AM72 °FPassing clouds.9 mph88%29.83 "HgN/A
1:00 AM70 °FClear.6 mph88%29.83 "Hg10 mi
12:00 AM70 °FClear.5 mph83%29.83 "Hg10 mi
11:00 PM
Thu, Feb 26
70 °FClear.6 mph83%29.83 "Hg10 mi
10:00 PM72 °FPassing clouds.5 mph78%29.80 "HgN/A
9:00 PM73 °FPassing clouds.3 mph69%29.80 "HgN/A
8:00 PM77 °FPassing clouds.10 mph61%29.80 "HgN/A
7:00 PM79 °FPassing clouds.9 mph65%29.80 "HgN/A
6:00 PM79 °FScattered clouds.13 mph70%29.83 "HgN/A
5:00 PM79 °FScattered clouds.14 mph70%29.83 "HgN/A
4:00 PM81 °FPassing clouds.15 mph62%29.86 "HgN/A
3:00 PM81 °FPassing clouds.16 mph66%29.86 "HgN/A
2:00 PM79 °FPassing clouds.17 mph74%29.89 "HgN/A
1:00 PM79 °FBroken clouds.16 mph74%29.89 "HgN/A
Weather by CustomWeather, © 2015

See weather overviewHow to use our weather pages